TimeEST,TemperatureF,Dew PointF,Humidity,Sea Level PressureIn,VisibilityMPH,Wind Direction,Wind SpeedMPH,Gust SpeedMPH,PrecipitationIn,Events,Conditions,WindDirDegrees,DateUTC
12:54 AM,33.1,26.1,75,30.44,10.0,SSE,8.1,-,N/A,,Clear,160,2013-01-11 05:54:00
1:54 AM,34.0,26.1,73,30.40,10.0,SSE,11.5,-,N/A,,Clear,150,2013-01-11 06:54:00
2:54 AM,35.1,26.1,70,30.37,10.0,SSE,9.2,-,N/A,,Clear,150,2013-01-11 07:54:00
3:54 AM,37.9,24.1,57,30.32,10.0,SSE,10.4,-,N/A,,Clear,160,2013-01-11 08:54:00
4:54 AM,39.9,23.0,51,30.29,10.0,SSE,11.5,-,0.00,Rain,Light Rain,150,2013-01-11 09:54:00
5:54 AM,41.0,24.1,51,30.25,10.0,SE,11.5,18.4,0.00,,Overcast,140,2013-01-11 10:54:00
6:54 AM,42.1,24.1,49,30.24,10.0,SE,9.2,-,N/A,,Overcast,140,2013-01-11 11:54:00
7:54 AM,42.1,27.0,55,30.22,10.0,ESE,11.5,-,0.00,,Overcast,120,2013-01-11 12:54:00
8:54 AM,41.0,28.9,62,30.20,10.0,SE,8.1,19.6,0.00,,Overcast,130,2013-01-11 13:54:00
9:54 AM,42.1,28.0,58,30.18,10.0,SE,11.5,-,N/A,,Mostly Cloudy,140,2013-01-11 14:54:00
10:54 AM,43.0,28.9,58,30.14,10.0,SSE,12.7,-,N/A,,Partly Cloudy,150,2013-01-11 15:54:00
11:54 AM,41.0,33.1,73,30.10,10.0,SE,10.4,21.9,0.00,Rain,Light Rain,130,2013-01-11 16:54:00
12:54 PM,44.1,32.0,63,30.05,10.0,SSE,12.7,-,N/A,,Overcast,150,2013-01-11 17:54:00
1:54 PM,45.0,32.0,60,30.04,10.0,SE,11.5,-,0.00,,Overcast,140,2013-01-11 18:54:00
2:54 PM,42.1,36.0,79,30.04,6.0,ESE,8.1,-,0.04,Rain,Light Rain,120,2013-01-11 19:54:00
3:54 PM,42.1,36.0,79,30.00,10.0,SE,13.8,23.0,0.02,,Mostly Cloudy,140,2013-01-11 20:54:00
4:54 PM,43.0,36.0,76,29.97,10.0,ESE,11.5,25.3,N/A,,Mostly Cloudy,120,2013-01-11 21:54:00
5:54 PM,43.0,36.0,76,30.01,10.0,SSE,10.4,-,N/A,,Overcast,160,2013-01-11 22:54:00
6:04 PM,42.8,35.6,76,29.98,10.0,SE,9.2,-,N/A,,Overcast,140,2013-01-11 23:04:00
6:54 PM,43.0,37.0,80,30.03,10.0,ESE,9.2,-,N/A,,Overcast,110,2013-01-11 23:54:00
7:54 PM,44.1,37.9,79,30.02,10.0,SE,11.5,-,N/A,,Overcast,140,2013-01-12 00:54:00
8:54 PM,44.1,37.9,79,30.04,10.0,ESE,8.1,-,N/A,,Overcast,120,2013-01-12 01:54:00
9:08 PM,44.6,37.4,76,30.00,10.0,SE,9.2,-,N/A,,Overcast,140,2013-01-12 02:08:00
9:54 PM,43.0,37.9,82,30.04,10.0,SE,8.1,-,N/A,,Overcast,130,2013-01-12 02:54:00
10:54 PM,44.1,39.0,82,30.04,10.0,SE,10.4,-,N/A,,Scattered Clouds,130,2013-01-12 03:54:00
11:54 PM,44.1,39.0,82,30.03,10.0,SSE,8.1,-,N/A,,Partly Cloudy,150,2013-01-12 04:54:00